Flag for Germany Weather past 2 weeks in Varel, Lower Saxony, Germany

Now
66 °F

Mild.


Feels Like: 66 °F
Forecast: 64 / 77 °F
Wind: 5 mph from Southeast

Location: Wittmundhaven

Current Time: Aug 2, 2014 at 4:44:51 AM

Latest Report: Aug 2, 2014 at 3:20 AM


Visibility: 3 mi

Pressure: 29.80 "Hg

Humidity: 73%

Dew point: 57 °F

Location of VarelLocation

Historic Weather in Varel — Graph

°F

Varel temperature yesterday

Maximum temperature yesterday: 82 °F (at 3:20 PM)
Minimum temperature yesterday: 57 °F (at 5:20 AM)
Average temperature yesterday: 70 °F

Past Weeks' High & Low Weather Summary

 TemperatureHumidityPressure
High91 °F (Jul 19, 2:20 PM)100% (Jul 18, 3:20 AM)30.18 "Hg (Jul 18, 3:20 AM)
Low55 °F (Jul 31, 4:20 AM)32% (Jul 19, 5:20 PM)29.77 "Hg (Jul 20, 6:20 PM)
Average70 °F73%29.96 "Hg
* Reported Jul 18 3:20 AM — Aug 2 3:20 AM, Varel, Weather by CustomWeather, © 2014

Note: Actual official high and low records may vary slightly from our data, if they occured in-between our weather recording intervals... More about our weather records

Advertising

Varel weather history for previous 24 hours

 ConditionsComfort  
Time TempWeatherWind HumidityBarometerVisibility
3:20 AM
Aug 2
66 °FMild.5 mph73%29.80 "Hg3 mi
2:20 AM66 °FMild.3 mph73%29.80 "Hg3 mi
1:20 AM68 °FMild.3 mph69%29.80 "Hg3 mi
12:20 AM68 °FMild.3 mph69%29.80 "Hg2 mi
11:20 PM
Aug 1
70 °FMild.3 mph64%29.80 "Hg2 mi
10:20 PM70 °FMild.3 mph69%29.80 "Hg2 mi
9:20 PM72 °FMild.1 mph69%29.80 "Hg2 mi
8:20 PM79 °FWarm.3 mph48%29.80 "Hg3 mi
7:20 PM81 °FWarm.7 mph42%29.80 "Hg3 mi
6:20 PM82 °FScattered clouds.8 mph40%29.80 "HgN/A
5:20 PM82 °FScattered clouds.10 mph40%29.80 "HgN/A
4:20 PM81 °FScattered clouds.12 mph42%29.83 "HgN/A
3:20 PM82 °FScattered clouds.10 mph40%29.83 "HgN/A
2:20 PM81 °FScattered clouds.9 mph42%29.83 "HgN/A
1:20 PM79 °FScattered clouds.8 mph42%29.86 "HgN/A
12:20 PM77 °FScattered clouds.6 mph47%29.86 "HgN/A
11:20 AM75 °FScattered clouds.5 mph54%29.86 "HgN/A
10:20 AM73 °FScattered clouds.5 mph57%29.86 "HgN/A
9:20 AM70 °FPassing clouds.5 mph69%29.89 "HgN/A
8:20 AM64 °FPassing clouds.3 mph78%29.89 "HgN/A
7:20 AM59 °FScattered clouds.2 mph88%29.89 "HgN/A
6:20 AM57 °FFog.3 mph94%29.89 "Hg5 mi
5:20 AM57 °FFog.2 mph94%29.89 "Hg4 mi
4:20 AM59 °FFog.2 mph88%29.89 "Hg4 mi
Weather by CustomWeather, © 2014

See weather overviewHow to use our weather pages